Meteo Giornale » Osservazioni meteo Stati Uniti (USA) » Seattle Boeing Fld
ore: 04:53 - Osservazioni Meteo Seattle Boeing Fld
Lat. 47° 32' N Lon. 122° 18' W Alt. 5 metri s.l.m.
14 °C
Sereno
Temp. 24 Ore
14 °C
24 °C
Nord
0 Km/h
Dew point 11 °C
Umidità 82 %
Visibilità 10 Km
Il sole sorge alle ore 06:28
Il sole tramonta alle ore 19:49
| Data e Ora | Cielo e Fenomeni | T °C | DP °C | Um. % | Pres. hPa | Vis. km | Vento km/h | |
|---|---|---|---|---|---|---|---|---|
| Oggi h: 04:53 | Sereno | 14 | 11 | 82 | 1009 | 10 | N 0 | |
| Oggi h: 03:53 | Sereno | 15 | 11 | 76 | 1009 | 10 | N 0 | |
| Oggi h: 02:53 | Sereno | 16 | 11 | 72 | 1008 | 10 | N 0 | |
| Oggi h: 01:53 | Sereno | 16 | 11 | 72 | 1008 | 10 | N 0 | |
| Oggi h: 00:53 | Sereno | 17 | 11 | 67 | 1008 | 10 | N 0 | |
| Ieri h: 23:53 | Sereno | 18 | 11 | 63 | 1008 | 10 | N 0 | |
| Ieri h: 22:53 | Sereno | 19 | 12 | 63 | 1008 | 10 | N 0 | |
| Ieri h: 21:53 | Sereno | 19 | 11 | 59 | 1008 | 10 | N 0 | |
| Ieri h: 20:53 | Sereno | 19 | 11 | 59 | 1008 | 10 | N 0 | |
| Ieri h: 19:53 | Sereno | 20 | 11 | 56 | 1008 | 10 | N 5.5 | |
| Ieri h: 18:53 | Sereno | 21 | 12 | 56 | 1008 | 10 | N 11.1 | |
| Ieri h: 17:53 | Sereno | 22 | 12 | 53 | 1008 | 10 | NO 16.7 | |
| Ieri h: 16:53 | Sereno | 23 | 12 | 49 | 1008 | 10 | NO 14.8 | |
| Ieri h: 15:53 | Sereno | 24 | 12 | 47 | 1009 | 10 | NO 13 | |
| Ieri h: 14:53 | Sereno | 23 | 12 | 49 | 1009 | 10 | NO 14.8 | |
| Ieri h: 13:53 | Sereno | 22 | 11 | 49 | 1010 | 10 | NO 13 | |
| Ieri h: 12:53 | Sereno | 21 | 11 | 52 | 1011 | 10 | O/NO 13 | |
| Ieri h: 11:53 | Sereno | 19 | 11 | 59 | 1012 | 10 | NO 11.1 | |
| Ieri h: 10:53 | Sereno | 19 | 12 | 63 | 1012 | 10 | N 9.3 | |
| Ieri h: 09:53 | Poco Nuvoloso | 18 | 12 | 67 | 1013 | 10 | N 0 | |
| Ieri h: 08:53 | Poco Nuvoloso | 16 | 12 | 77 | 1014 | 10 | NE 11.1 | |
| Ieri h: 07:53 | Molto Nuvoloso | 15 | 12 | 82 | 1014 | 10 | N 7.4 | |
| Ieri h: 07:26 | Molto Nuvoloso | 15 | 12 | 82 | 1014 | 10 | N 0 | |
| Ieri h: 06:53 | Sereno | 14 | 12 | 87 | 1014 | 10 | N 0 | |
| Ieri h: 05:53 | Sereno | 14 | 12 | 87 | 1014 | 10 | N 5.5 | |



